Ogden Hill AFB, UT

8:17 PM MDT on April 22, 2018 (GMT -0600)
Hill Air Force Base

Weather History for KHIF - March, 2013

Change the Weather History Date:

Friday, March 22, 2013

  Actual Average Record
Temperature  
Mean Temperature 30 °F -  
Max Temperature 34 °F 52 °F 73 °F (2004)
Min Temperature 25 °F 34 °F 25 °F (2013)
Degree Days  
Heating Degree Days 36    
Moisture  
Dew Point 18 °F    
Average Humidity 61    
Maximum Humidity 86    
Minimum Humidity 34    
Precipitation  
Precipitation 0.00 in - - ()
Sea Level Pressure  
Sea Level Pressure 29.93 in    
Wind  
Wind Speed 7 mph (NNW)    
Max Wind Speed 22 mph    
Max Gust Speed 26 mph    
Visibility 8 miles    
Events Snow    
Averages and records for this station are not official NWS values.
T = Trace of Precipitation, MM = Missing Value Source: NWS Daily Summary

Daily Weather History Graph

Daily Weather History Graph

Search for Another Location

Airport or City:

Astronomy

Mar. 22, 2013 Rise Set
Actual Time 7:27 AM MDT 7:42 PM MDT
Civil Twilight 6:59 AM MDT 8:10 PM MDT
Nautical Twilight 6:27 AM MDT 8:42 PM MDT
Astronomical Twilight 5:54 AM MDT 9:15 PM MDT
Moon 3:11 PM MDT (3/22) 4:32 AM MDT (3/22)
Length of Visible Light 13h 10m
Length of Day
12h 15m
Waxing Gibbous, 78% of the Moon is Illuminated
Mar 22
Waxing Gibbous
Mar 27
Full
Apr 2
Last Quarter
Apr 10
New
Apr 18
First Quarter

Hourly Weather History & Observations

Time (MDT) Temp. Windchill Dew Point Humidity Pressure Visibility Wind Dir Wind Speed Gust Speed Precip Events Conditions
12:58 AM 33.6 °F 27.5 °F 12.9 °F 43% 29.98 in 10.0 mi North 6.9 mph - N/A   Overcast
1:58 AM 33.4 °F 30.4 °F 14.2 °F 45% 29.97 in 10.0 mi NNW 3.5 mph - N/A   Overcast
2:58 AM 32.0 °F - 13.3 °F 46% 29.95 in 10.0 mi North 2.3 mph - N/A   Overcast
3:08 AM 32.0 °F - 12.2 °F 44% 29.94 in 10.0 mi North 2.3 mph - N/A   Scattered Clouds
3:58 AM 31.8 °F - 15.3 °F 50% 29.93 in 10.0 mi Calm Calm - N/A   Partly Cloudy
4:23 AM 32.0 °F 28.7 °F 15.8 °F 51% 29.91 in 10.0 mi NNW 3.5 mph - N/A   Mostly Cloudy
4:58 AM 30.6 °F 25.8 °F 17.6 °F 59% 29.91 in 10.0 mi NNW 4.6 mph - N/A   Mostly Cloudy
5:08 AM 32.0 °F 27.5 °F 19.4 °F 60% 29.90 in 10.0 mi North 4.6 mph - N/A   Overcast
5:33 AM 32.0 °F 26.4 °F 14.0 °F 48% 29.90 in 10.0 mi NNW 5.8 mph - N/A   Mostly Cloudy
5:38 AM 32.0 °F 25.6 °F 14.0 °F 48% 29.90 in 10.0 mi NNW 6.9 mph - N/A   Scattered Clouds
5:58 AM 30.7 °F - 16.5 °F 56% 29.90 in 10.0 mi North 2.3 mph - N/A   Partly Cloudy
6:58 AM 30.9 °F - 14.7 °F 51% 29.90 in 10.0 mi NE 2.3 mph - N/A   Clear
7:58 AM 30.2 °F 24.3 °F 15.8 °F 55% 29.91 in 10.0 mi Variable 5.8 mph - N/A   Overcast
8:58 AM 29.8 °F 24.9 °F 18.1 °F 62% 29.91 in 10.0 mi SE 4.6 mph - N/A   Overcast
9:44 AM 30.2 °F 22.6 °F 19.4 °F 64% 29.89 in 6.0 mi SSE 8.1 mph - N/A   Small Hail
9:54 AM 28.4 °F 21.2 °F 21.2 °F 74% 29.90 in 1.0 mi SE 6.9 mph - N/A Snow Light Snow
9:58 AM 29.1 °F 22.1 °F 21.7 °F 74% 29.93 in 1.0 mi South 6.9 mph - 0.00 in Snow Light Snow
10:03 AM 28.4 °F 21.2 °F 23.0 °F 80% 29.90 in 0.8 mi SSE 6.9 mph - N/A Snow Light Snow
10:14 AM 28.4 °F - 23.0 °F 80% 29.90 in 0.5 mi Calm Calm - N/A Snow Snow
10:22 AM 28.4 °F - 23.0 °F 80% 29.90 in 1.5 mi Calm Calm - N/A   Overcast
10:27 AM 30.2 °F - 21.2 °F 69% 29.90 in 7.0 mi SSE 2.3 mph - N/A   Overcast
10:37 AM 30.2 °F 24.3 °F 23.0 °F 75% 29.90 in 5.0 mi SSE 5.8 mph - N/A   Overcast
10:48 AM 28.4 °F 21.2 °F 23.0 °F 80% 29.90 in 2.0 mi SSE 6.9 mph - N/A Snow Light Snow
10:58 AM 30.0 °F 23.2 °F 22.3 °F 73% 29.93 in 2.0 mi South 6.9 mph - 0.00 in Snow Light Snow
11:09 AM 32.0 °F - 21.2 °F 64% 29.90 in 3.0 mi Variable 2.3 mph - N/A   Mostly Cloudy
11:14 AM 32.0 °F 24.8 °F 21.2 °F 64% 29.90 in 10.0 mi NNW 8.1 mph - N/A   Overcast
11:32 AM 32.0 °F 22.1 °F 23.0 °F 69% 29.90 in 5.0 mi NNW 13.8 mph 18.4 mph N/A Snow Light Snow
11:58 AM 29.5 °F 20.4 °F 20.3 °F 69% 29.94 in 9.0 mi NW 10.4 mph - 0.00 in Snow Light Snow
12:07 PM 30.2 °F 23.4 °F 19.4 °F 64% 29.91 in 10.0 mi NW 6.9 mph - N/A   Mostly Cloudy
12:32 PM 32.0 °F 26.4 °F 17.6 °F 55% 29.90 in 6.0 mi West 5.8 mph - N/A Snow Light Snow
12:38 PM 32.0 °F 22.5 °F 15.8 °F 51% 29.91 in 4.0 mi WNW 12.7 mph 18.4 mph N/A Snow Light Snow
12:43 PM 32.0 °F 22.5 °F 19.4 °F 60% 29.91 in 2.0 mi NW 12.7 mph 18.4 mph N/A Snow Light Snow
12:58 PM 28.4 °F 21.2 °F 24.8 °F 86% 29.95 in 5.0 mi NNW 6.9 mph - 0.00 in Snow Light Snow
1:08 PM 28.4 °F 21.2 °F 23.0 °F 80% 29.91 in 10.0 mi NNW 6.9 mph - N/A   Mostly Cloudy
1:35 PM 32.0 °F 23.6 °F 17.6 °F 55% 29.90 in 10.0 mi WSW 10.4 mph - N/A   Mostly Cloudy
1:58 PM 34.2 °F 25.2 °F 8.2 °F 34% 29.92 in 10.0 mi WSW 12.7 mph 26.5 mph 0.00 in   Mostly Cloudy
2:17 PM 33.8 °F 22.8 °F 12.2 °F 41% 29.90 in 10.0 mi WNW 18.4 mph 26.5 mph N/A   Mostly Cloudy
2:24 PM 32.0 °F 20.5 °F 21.2 °F 64% 29.91 in 10.0 mi NNW 18.4 mph 24.2 mph N/A   Mostly Cloudy
2:29 PM 32.0 °F 21.2 °F 21.2 °F 64% 29.91 in 10.0 mi NNW 16.1 mph - N/A   Mostly Cloudy
2:34 PM 30.2 °F 19.3 °F 19.4 °F 64% 29.91 in 6.0 mi NNW 15.0 mph - N/A Snow Light Snow
2:49 PM 30.2 °F 20.2 °F 21.2 °F 69% 29.90 in 10.0 mi North 12.7 mph - N/A   Mostly Cloudy
2:58 PM 29.3 °F 20.2 °F 21.2 °F 72% 29.95 in 10.0 mi North 10.4 mph - 0.00 in   Mostly Cloudy
3:05 PM 28.4 °F 18.5 °F 21.2 °F 74% 29.91 in 10.0 mi North 11.5 mph - N/A Snow Light Snow
3:25 PM 30.2 °F 26.7 °F 19.4 °F 64% 29.90 in 10.0 mi Variable 3.5 mph - N/A   Scattered Clouds
3:58 PM 32.2 °F 21.8 °F 13.5 °F 46% 29.94 in 10.0 mi NNW 15.0 mph 21.9 mph 0.00 in   Mostly Cloudy
4:58 PM 31.6 °F 28.3 °F 13.8 °F 48% 29.94 in 10.0 mi NW 3.5 mph - N/A   Overcast
5:48 PM 32.0 °F 25.6 °F 15.8 °F 51% 29.91 in 10.0 mi Variable 6.9 mph - N/A   Mostly Cloudy
5:58 PM 32.4 °F 26.0 °F 11.7 °F 42% 29.94 in 10.0 mi NW 6.9 mph - N/A   Mostly Cloudy
6:58 PM 33.4 °F 25.9 °F 9.5 °F 37% 29.95 in 10.0 mi NNW 9.2 mph - N/A   Mostly Cloudy
7:16 PM 32.0 °F 19.5 °F 12.2 °F 44% 29.92 in 10.0 mi West 21.9 mph 26.5 mph N/A Snow Light Snow
7:21 PM 32.0 °F 22.5 °F 15.8 °F 51% 29.94 in 5.0 mi West 12.7 mph 26.5 mph N/A Snow Light Snow
7:26 PM 30.2 °F 24.3 °F 17.6 °F 60% 29.94 in 2.5 mi NW 5.8 mph 20.7 mph N/A Snow Light Snow
7:31 PM 28.4 °F 19.1 °F 17.6 °F 64% 29.93 in 3.0 mi West 10.4 mph 16.1 mph N/A Snow Light Snow
7:36 PM 28.4 °F 23.3 °F 14.0 °F 55% 29.93 in 9.0 mi West 4.6 mph - N/A Snow Light Snow
7:44 PM 30.2 °F 25.4 °F 14.0 °F 51% 29.93 in 10.0 mi WSW 4.6 mph - N/A   Mostly Cloudy
7:49 PM 30.2 °F 26.7 °F 12.2 °F 47% 29.93 in 10.0 mi SW 3.5 mph - N/A   Mostly Cloudy
7:58 PM 29.7 °F 22.8 °F 12.7 °F 49% 29.98 in 10.0 mi West 6.9 mph - 0.00 in   Overcast
8:03 PM 30.2 °F 22.6 °F 12.2 °F 47% 29.94 in 10.0 mi ENE 8.1 mph - N/A   Overcast
8:28 PM 28.4 °F 24.6 °F 17.6 °F 64% 29.95 in 10.0 mi Variable 3.5 mph - N/A   Overcast
8:33 PM 28.4 °F 15.8 °F 17.6 °F 64% 29.96 in 10.0 mi North 18.4 mph - N/A   Mostly Cloudy
8:38 PM 28.4 °F 16.6 °F 19.4 °F 69% 29.96 in 10.0 mi North 16.1 mph - N/A   Overcast
8:43 PM 28.4 °F 17.0 °F 19.4 °F 69% 29.96 in 10.0 mi North 15.0 mph - N/A   Overcast
8:58 PM 27.0 °F 16.7 °F 20.1 °F 75% 30.02 in 10.0 mi North 11.5 mph - N/A   Overcast
9:18 PM 26.6 °F 15.2 °F 21.2 °F 80% 29.97 in 10.0 mi North 13.8 mph 19.6 mph N/A   Scattered Clouds
9:23 PM 26.6 °F 15.7 °F 19.4 °F 74% 29.98 in 10.0 mi North 12.7 mph 19.6 mph N/A   Mostly Cloudy
9:58 PM 25.9 °F 16.6 °F 19.0 °F 75% 30.02 in 10.0 mi North 9.2 mph - N/A   Scattered Clouds
10:58 PM 27.0 °F 20.5 °F 15.8 °F 63% 30.02 in 10.0 mi NNW 5.8 mph - N/A   Clear